FW4784 Weather Reports


time (UTC)temp
C
wind
direction
speed
KPH
gust
KPH
rain 1hr
cm
rain 24hr
cm
rain mn
cm
humidity
%
barometer
mb
20260507005045 17 360 4.8 14.5 0.00 0.03 0.00 65 1020.5
20260507004553 16 360 3.2 14.5 0.00 0.03 0.00 64 1020.6
20260507004042 17 360 4.8 9.7 0.00 0.03 0.00 64 1020.6
20260507003543 17 360 4.8 12.9 0.00 0.03 0.00 63 1020.6
20260507003047 17 360 3.2 16.1 0.00 0.03 0.00 64 1020.5
20260507002541 17 360 6.4 16.1 0.00 0.03 0.00 64 1020.4
20260507002041 17 360 4.8 14.5 0.00 0.03 0.00 65 1020.4
20260507001545 17 360 4.8 14.5 0.00 0.03 0.00 65 1020.4
20260507001040 17 360 6.4 19.3 0.00 0.03 0.00 64 1020.5
20260507000545 17 360 6.4 19.3 0.00 0.03 0.00 64 1020.4
20260506235539 17 360 4.8 16.1 0.00 0.03 0.00 66 1020.2
20260506235038 16 360 6.4 22.5 0.00 0.03 0.00 64 1020.3
20260506234543 17 11 8.0 22.5 0.00 0.03 0.00 66 1020.4
20260506234037 17 351 4.8 17.7 0.00 0.03 0.00 66 1020.2
20260506233536 16 360 6.4 17.7 0.00 0.03 0.00 67 1020.3
20260506233036 16 360 9.7 17.7 0.00 0.03 0.00 67 1020.4
20260506232535 16 360 9.7 17.7 0.00 0.03 0.00 67 1020.4
20260506232035 16 360 6.4 17.7 0.00 0.03 0.00 67 1020.4
20260506231534 16 360 6.4 16.1 0.00 0.03 0.00 67 1020.5
20260506231032 16 360 8.0 20.9 0.00 0.03 0.00 68 1020.5
20260506230531 16 360 6.4 20.9 0.00 0.03 0.00 71 1020.6
20260506230030 16 360 8.0 19.3 0.00 0.03 0.00 71 1020.6
20260506225529 16 360 8.0 20.9 0.00 0.03 0.00 71 1020.6
20260506225029 16 360 8.0 20.9 0.00 0.03 0.00 72 1020.7
20260506224532 16 360 9.7 20.9 0.00 0.03 0.00 72 1020.7
20260506224029 16 360 8.0 22.5 0.00 0.03 0.00 73 1020.7
20260506223527 16 360 12.9 24.1 0.00 0.03 0.00 72 1020.8
20260506223039 16 360 9.7 24.1 0.00 0.03 0.00 73 1020.7
20260506222527 16 360 4.8 22.5 0.00 0.03 0.00 74 1020.8
20260506222028 15 360 11.3 22.5 0.00 0.03 0.00 74 1020.8
20260506221526 16 360 9.7 22.5 0.00 0.03 0.00 73 1020.9
20260506221025 15 360 9.7 22.5 0.00 0.03 0.00 74 1021.1
20260506220525 15 360 9.7 22.5 0.00 0.03 0.00 75 1021.0
20260506220026 15 360 11.3 22.5 0.00 0.03 0.00 74 1021.2
20260506215029 15 360 14.5 25.7 0.00 0.03 0.00 74 1021.1
20260506214537 15 360 8.0 20.9 0.00 0.03 0.00 75 1021.2
20260506214024 15 360 11.3 19.3 0.00 0.03 0.00 74 1021.2
20260506213526 15 350 9.7 19.3 0.00 0.03 0.00 74 1021.3
20260506213024 15 360 6.4 17.7 0.00 0.03 0.00 76 1021.3
20260506212522 15 360 8.0 22.5 0.00 0.03 0.00 76 1021.3
20260506212021 15 360 14.5 22.5 0.00 0.03 0.00 75 1021.3
20260506211620 15 360 9.7 22.5 0.00 0.03 0.00 76 1021.4
20260506211020 15 360 12.9 22.5 0.00 0.03 0.00 77 1021.4
20260506210520 15 360 9.7 22.5 0.00 0.03 0.00 77 1021.2
20260506210021 15 360 12.9 22.5 0.00 0.03 0.00 76 1021.4
20260506205518 15 360 4.8 17.7 0.00 0.03 0.00 79 1021.4
20260506205018 14 360 6.4 24.1 0.00 0.03 0.00 79 1021.3
20260506204518 13 360 11.3 24.1 0.00 0.03 0.00 79 1021.4
20260506204017 13 360 14.5 24.1 0.00 0.03 0.00 80 1021.3
20260506203517 13 360 9.7 27.4 0.00 0.03 0.00 80 1021.4
20260506203020 13 360 14.5 27.4 0.00 0.03 0.00 79 1021.5
20260506202516 13 360 3.2 24.1 0.00 0.03 0.00 80 1021.6
20260506202015 13 360 9.7 19.3 0.00 0.03 0.00 80 1021.8
20260506201515 13 360 12.9 24.1 0.00 0.03 0.00 81 1021.7
20260506201016 13 360 12.9 24.1 0.00 0.03 0.00 81 1021.8
20260506200513 13 15 8.0 20.9 0.00 0.03 0.00 82 1021.8
20260506200012 13 347 8.0 20.9 0.00 0.03 0.00 82 1021.7
20260506195511 13 360 6.4 20.9 0.00 0.03 0.00 83 1021.9
20260506195010 12 360 11.3 20.9 0.00 0.03 0.00 83 1021.8
20260506194510 12 18 4.8 16.1 0.00 0.03 0.00 83 1022.0
20260506194012 12 360 8.0 16.1 0.00 0.03 0.00 84 1022.0
20260506193507 12 360 6.4 16.1 0.00 0.03 0.00 85 1022.0
20260506193006 12 360 8.0 20.9 0.00 0.03 0.00 85 1022.1
20260506192507 12 360 9.7 20.9 0.00 0.03 0.00 85 1022.4
20260506192007 11 18 4.8 24.1 0.00 0.03 0.00 85 1022.4
20260506191506 11 360 11.3 24.1 0.00 0.03 0.00 85 1022.2
20260506191007 11 360 11.3 20.9 0.00 0.03 0.00 85 1022.3
20260506190509 11 360 8.0 19.3 0.00 0.03 0.00 85 1022.4
20260506190008 11 360 6.4 19.3 0.00 0.03 0.00 86 1022.6
20260506185504 11 360 8.0 19.3 0.00 0.03 0.00 85 1022.6
20260506185103 11 10 4.8 16.1 0.00 0.03 0.00 86 1022.5
20260506184503 11 360 9.7 19.3 0.00 0.03 0.00 85 1022.6
20260506184006 11 345 9.7 19.3 0.00 0.03 0.00 85 1022.7
20260506183504 11 360 6.4 19.3 0.00 0.03 0.00 86 1022.7
20260506183007 11 360 6.4 19.3 0.00 0.03 0.00 87 1022.7
20260506182501 11 30 11.3 19.3 0.00 0.03 0.00 85 1022.7
20260506182100 11 360 9.7 20.9 0.00 0.03 0.00 86 1022.7
20260506181624 11 360 11.3 20.9 0.00 0.03 0.00 86 1022.8
20260506181059 11 360 9.7 22.5 0.00 0.03 0.00 86 1022.8
20260506180601 11 360 12.9 22.5 0.00 0.03 0.00 86 1022.8
20260506180059 11 360 9.7 19.3 0.00 0.03 0.00 85 1022.9
20260506175557 10 360 6.4 17.7 0.00 0.05 0.00 84 1023.0
20260506175057 10 360 9.7 16.1 0.00 0.05 0.00 84 1022.9
20260506174557 10 18 8.0 16.1 0.00 0.05 0.00 82 1022.8
20260506174057 10 360 4.8 16.1 0.00 0.05 0.00 84 1022.9
20260506173557 10 360 6.4 16.1 0.00 0.05 0.00 86 1022.9
20260506173106 10 360 6.4 16.1 0.00 0.05 0.00 86 1023.0
20260506172601 10 360 6.4 14.5 0.00 0.05 0.00 87 1023.0
20260506172057 10 292 3.2 19.3 0.00 0.05 0.00 87 1022.9
20260506171602 10 360 8.0 19.3 0.00 0.05 0.00 85 1022.9
20260506171056 10 360 4.8 17.7 0.00 0.05 0.00 86 1023.0
20260506170559 10 360 8.0 17.7 0.00 0.05 0.00 85 1023.0
20260506170057 10 360 4.8 16.1 0.00 0.05 0.00 84 1022.9
20260506165600 10 360 8.0 16.1 0.00 0.08 0.00 85 1022.9
20260506165055 10 348 4.8 16.1 0.00 0.08 0.00 85 1022.8
20260506164655 10 360 6.4 16.1 0.00 0.08 0.00 83 1022.8
20260506164056 10 28 8.0 16.1 0.00 0.08 0.00 85 1022.8
20260506163554 10 360 9.7 16.1 0.00 0.08 0.00 84 1022.8
20260506163055 10 360 8.0 16.1 0.00 0.08 0.00 81 1022.9
20260506162554 10 360 6.4 14.5 0.00 0.08 0.00 82 1022.9
20260506162058 10 360 8.0 19.3 0.00 0.08 0.00 82 1022.9
20260506161554 10 13 8.0 19.3 0.00 0.08 0.00 80 1023.0
20260506161056 10 350 8.0 16.1 0.00 0.08 0.00 84 1022.9
20260506160552 10 35 3.2 12.9 0.00 0.08 0.00 84 1022.9
20260506160054 10 360 3.2 12.9 0.00 0.08 0.00 83 1023.0
20260506155553 10 360 3.2 12.9 0.00 0.15 0.00 87 1023.0
20260506155050 10 20 3.2 9.7 0.00 0.15 0.00 88 1022.9
20260506154552 10 17 3.2 9.7 0.00 0.15 0.00 87 1023.0
20260506154050 10 360 3.2 6.4 0.00 0.15 0.00 88 1023.0
20260506153551 10 117 1.6 9.7 0.00 0.15 0.00 87 1023.0
20260506153108 10 360 1.6 9.7 0.00 0.15 0.00 87 1023.0
20260506152550 10 360 4.8 9.7 0.00 0.15 0.00 85 1023.1
20260506152050 10 44 4.8 8.0 0.00 0.15 0.00 85 1023.1
20260506151548 10 49 1.6 9.7 0.00 0.15 0.00 85 1023.0
20260506151051 10 30 4.8 9.7 0.00 0.15 0.00 85 1023.0
20260506150548 10 348 1.6 6.4 0.00 0.15 0.00 86 1022.9
20260506150056 10 16 0.0 6.4 0.00 0.15 0.00 85 1022.7
20260506145548 10 360 1.6 8.0 0.00 0.15 0.00 84 1022.8
20260506145045 10 360 1.6 12.9 0.00 0.15 0.00 86 1022.7
20260506144554 9 92 0.0 12.9 0.00 0.15 0.00 86 1022.7
20260506144145 9 360 6.4 12.9 0.00 0.15 0.00 86 1022.7
20260506143544 8 360 3.2 9.7 0.00 0.15 0.00 86 1022.8
20260506143044 8 5 1.6 9.7 0.00 0.15 0.00 86 1022.8
20260506142541 9 324 3.2 8.0 0.00 0.15 0.00 85 1022.7
20260506142044 9 348 4.8 8.0 0.00 0.15 0.00 85 1022.6
20260506141541 9 18 0.0 4.8 0.00 0.15 0.00 87 1022.5
20260506141039 8 19 0.0 4.8 0.00 0.15 0.00 86 1022.4
20260506140546 8 67 0.0 4.8 0.00 0.15 0.00 87 1022.4
20260506140037 8 67 0.0 4.8 0.00 0.15 0.00 87 1022.3
20260506135535 8 28 0.0 3.2 0.00 0.15 0.00 87 1022.4
20260506135035 8 28 0.0 6.4 0.00 0.15 0.00 87 1022.2
20260506134535 8 308 1.6 6.4 0.00 0.15 0.00 87 1022.4
20260506134036 7 297 0.0 6.4 0.00 0.15 0.00 88 1022.2
20260506133535 7 360 1.6 6.4 0.00 0.15 0.00 88 1022.2
20260506133034 7 360 1.6 9.7 0.00 0.15 0.00 88 1022.1
20260506132536 7 360 3.2 14.5 0.00 0.15 0.00 89 1022.0
20260506132032 7 360 6.4 14.5 0.00 0.15 0.00 90 1022.1
20260506131538 6 360 1.6 6.4 0.00 0.15 0.00 89 1022.1
20260506131031 6 360 1.6 3.2 0.00 0.15 0.00 89 1022.0
20260506130531 6 221 1.6 6.4 0.00 0.15 0.00 89 1022.0
20260506130031 7 360 0.0 6.4 0.00 0.15 0.00 90 1022.0
20260506125532 7 254 3.2 9.7 0.00 0.15 0.00 90 1022.0
20260506125033 6 360 4.8 9.7 0.00 0.15 0.00 90 1021.9
20260506124530 7 299 1.6 9.7 0.00 0.15 0.00 89 1021.8
20260506124030 7 360 3.2 9.7 0.00 0.15 0.00 90 1021.8
20260506123028 6 360 4.8 9.7 0.00 0.15 0.00 90 1021.9
20260506122527 6 360 0.0 4.8 0.00 0.15 0.00 90 1021.7
20260506122028 6 360 0.0 6.4 0.00 0.15 0.00 90 1021.7
20260506121527 7 265 1.6 6.4 0.00 0.15 0.00 90 1021.7
20260506121025 7 360 1.6 6.4 0.00 0.15 0.00 90 1021.9
20260506120527 7 360 1.6 8.0 0.00 0.15 0.00 90 1021.8
20260506120024 7 244 1.6 8.0 0.00 0.15 0.00 90 1021.8
20260506115526 7 360 1.6 9.7 0.00 0.15 0.00 90 1021.8
20260506115024 7 322 0.0 9.7 0.00 0.15 0.00 90 1021.9
20260506114528 7 360 3.2 8.0 0.00 0.15 0.00 90 1021.9
20260506114022 7 360 3.2 8.0 0.00 0.15 0.00 90 1021.9
20260506113521 7 275 1.6 4.8 0.00 0.15 0.00 90 1021.7
20260506113034 7 360 0.0 4.8 0.00 0.15 0.00 89 1021.8
20260506112521 7 242 0.0 4.8 0.00 0.15 0.00 89 1021.8
20260506112019 7 360 1.6 4.8 0.00 0.15 0.00 89 1021.8
20260506111520 7 360 0.0 8.0 0.00 0.15 0.00 90 1021.7
20260506111019 7 360 3.2 8.0 0.00 0.15 0.00 90 1021.6
20260506110519 7 360 1.6 4.8 0.00 0.15 0.00 90 1021.7
20260506110121 7 247 1.6 6.4 0.00 0.15 0.00 89 1021.6
20260506105519 7 360 0.0 9.7 0.00 0.15 0.00 89 1021.7
20260506105019 8 269 3.2 9.7 0.00 0.15 0.00 89 1021.6
20260506104521 8 360 1.6 6.4 0.00 0.15 0.00 89 1021.5
20260506104018 8 360 1.6 4.8 0.00 0.15 0.00 89 1021.5
20260506103517 8 333 1.6 6.4 0.00 0.15 0.00 88 1021.6
20260506102517 8 360 3.2 9.7 0.00 0.15 0.00 88 1021.5
20260506102017 8 360 1.6 12.9 0.00 0.15 0.00 88 1021.5
20260506101516 8 360 4.8 12.9 0.00 0.15 0.00 87 1021.6
20260506101015 8 360 1.6 9.7 0.00 0.15 0.00 86 1021.5
20260506100515 8 360 3.2 9.7 0.00 0.15 0.00 86 1021.4
20260506100015 8 360 1.6 6.4 0.00 0.15 0.00 86 1021.4
20260506095515 8 360 3.2 9.7 0.00 0.15 0.00 85 1021.4
20260506095015 8 360 3.2 9.7 0.00 0.15 0.00 84 1021.3
20260506094514 8 217 1.6 8.0 0.00 0.15 0.00 84 1021.3
20260506094014 8 360 3.2 11.3 0.00 0.15 0.00 84 1021.2
20260506093514 8 360 1.6 14.5 0.00 0.15 0.00 85 1021.3
20260506093013 8 360 3.2 14.5 0.00 0.15 0.00 85 1021.2
20260506092513 8 360 1.6 9.7 0.00 0.15 0.00 85 1021.3
20260506092013 8 182 3.2 8.0 0.00 0.15 0.00 85 1021.2
20260506091513 8 360 1.6 14.5 0.00 0.15 0.00 85 1021.3
20260506091012 8 360 4.8 14.5 0.00 0.15 0.00 85 1021.4
20260506090511 8 360 4.8 17.7 0.00 0.15 0.00 85 1021.4
20260506090019 8 360 6.4 17.7 0.00 0.15 0.00 85 1021.4
20260506085511 8 360 1.6 8.0 0.00 0.15 0.00 85 1021.3
20260506085011 8 266 1.6 8.0 0.00 0.15 0.00 85 1021.3
20260506084513 8 360 0.0 12.9 0.00 0.15 0.00 85 1021.4
20260506084012 8 360 4.8 17.7 0.00 0.15 0.00 85 1021.2
20260506083511 8 170 3.2 17.7 0.00 0.15 0.00 85 1021.3
20260506083012 8 360 4.8 9.7 0.00 0.15 0.00 85 1021.3
20260506082509 8 360 4.8 9.7 0.00 0.15 0.00 85 1021.3
20260506082010 8 360 3.2 14.5 0.00 0.15 0.00 85 1021.2
20260506081508 8 360 6.4 14.5 0.00 0.15 0.00 86 1021.2
20260506081010 8 360 1.6 6.4 0.00 0.15 0.00 85 1021.3
20260506080507 8 277 1.6 16.1 0.00 0.15 0.00 85 1021.1
20260506073503 7 360 4.8 12.9 0.00 0.15 0.00 86 1021.0
20260506073003 7 360 1.6 12.9 0.00 0.15 0.00 86 1021.1
20260506072602 7 360 1.6 8.0 0.00 0.15 0.00 86 1020.9
20260506072002 7 360 1.6 14.5 0.03 0.15 0.00 86 1021.0
20260506071606 7 360 4.8 9.7 0.03 0.15 0.00 86 1020.9
20260506071100 7 360 3.2 9.7 0.03 0.15 0.00 86 1020.9
20260506070602 7 360 1.6 19.3 0.03 0.15 0.00 86 1020.8
20260506061555 7 360 4.8 17.7 0.00 0.13 0.13 86 1020.5
20260506061055 7 360 6.4 17.7 0.00 0.13 0.13 86 1020.4
20260506060555 7 192 4.8 12.9 0.00 0.13 0.13 87 1020.4
20260506051052 7 360 6.4 16.1 0.00 0.13 0.13 87 1020.1
20260506050551 7 360 4.8 16.1 0.00 0.13 0.13 87 1020.1
20260506045050 7 247 6.4 20.9 0.00 0.13 0.13 87 1019.9
20260506044553 7 360 4.8 20.9 0.00 0.13 0.13 87 1019.9
20260506044049 7 360 8.0 16.1 0.00 0.13 0.13 87 1020.0
20260506043549 7 197 4.8 17.7 0.00 0.13 0.13 88 1019.9
20260506043049 7 197 9.7 17.7 0.00 0.13 0.13 88 1019.8
20260506042549 7 360 6.4 12.9 0.00 0.13 0.13 88 1019.8
20260506042049 7 360 3.2 12.9 0.00 0.13 0.13 88 1019.7
20260506041548 7 360 4.8 12.9 0.00 0.13 0.13 88 1019.7
20260506041048 7 360 3.2 14.5 0.00 0.13 0.13 88 1019.6
20260506040546 7 360 4.8 16.1 0.00 0.13 0.13 88 1019.5
20260506040047 7 360 6.4 16.1 0.00 0.13 0.13 89 1019.5
20260506035548 7 360 4.8 12.9 0.00 0.13 0.13 89 1019.5
20260506035045 7 360 6.4 12.9 0.00 0.13 0.13 89 1019.4
20260506034559 7 360 6.4 9.7 0.00 0.13 0.13 89 1019.4
20260506034044 7 360 3.2 8.0 0.00 0.13 0.13 89 1019.3
20260506033543 7 360 0.0 9.7 0.00 0.13 0.13 89 1019.2
20260506033043 7 360 4.8 9.7 0.00 0.13 0.13 89 1019.3
20260506032546 7 360 4.8 9.7 0.00 0.13 0.13 89 1019.2
20260506032044 7 360 3.2 14.5 0.00 0.13 0.13 90 1019.1
20260506031642 7 269 3.2 14.5 0.00 0.13 0.13 90 1019.1
20260506031039 7 360 4.8 14.5 0.00 0.13 0.13 90 1018.9
20260506030539 7 360 3.2 14.5 0.00 0.13 0.13 90 1018.8
20260506030042 7 360 3.2 8.0 0.00 0.13 0.13 90 1018.8
20260506025539 7 360 3.2 12.9 0.00 0.13 0.13 90 1018.7
20260506025038 7 360 3.2 12.9 0.00 0.13 0.13 90 1018.5
20260506024556 7 360 4.8 14.5 0.00 0.13 0.13 90 1018.5
20260506024037 7 360 3.2 14.5 0.00 0.13 0.13 90 1018.3
20260506023537 7 243 3.2 12.9 0.00 0.13 0.13 90 1018.3
20260506023037 7 360 3.2 12.9 0.00 0.13 0.13 91 1018.3
20260506022539 7 360 4.8 8.0 0.00 0.13 0.13 91 1018.4
20260506022035 7 360 3.2 12.9 0.00 0.13 0.13 91 1018.3
20260506021535 7 360 4.8 9.7 0.00 0.13 0.13 91 1018.3
20260506021035 8 360 3.2 9.7 0.00 0.13 0.13 91 1018.2
20260506020534 7 360 3.2 12.9 0.00 0.13 0.13 91 1018.2
20260506020034 7 360 3.2 12.9 0.00 0.13 0.13 92 1018.2
20260506015534 7 360 4.8 14.5 0.00 0.13 0.13 92 1018.0
20260506015034 7 279 4.8 14.5 0.00 0.13 0.13 92 1018.0
20260506014533 8 360 1.6 8.0 0.00 0.13 0.13 92 1017.9
20260506014032 8 360 1.6 12.9 0.00 0.13 0.13 92 1018.0
20260506013532 8 360 3.2 14.5 0.00 0.13 0.13 92 1017.9
20260506013041 8 360 3.2 14.5 0.00 0.13 0.13 92 1017.8
20260506012534 8 360 3.2 14.5 0.00 0.13 0.13 92 1017.8
20260506012032 8 360 4.8 12.9 0.00 0.13 0.13 93 1017.9
20260506011531 8 360 3.2 14.5 0.00 0.13 0.13 93 1017.9
20260506010531 7 360 4.8 16.1 0.00 0.13 0.13 94 1017.7
20260506010031 7 360 1.6 14.5 0.00 0.13 0.13 94 1017.7
20260506005530 7 360 4.8 14.5 0.00 0.13 0.13 94 1017.7